Regional Weather Roundup
Issued by NWS

Home | Current Version | Previous Version | Text Only | Print | Product List | Glossary On
Versions: 1 2 3 4 5 6 7 8 9 10 11 12 13 14 15 16 17 18 19 20 21 22 23 24 25 26 27 28 29 30 31 32 33 34 35 36 37 38 39 40 41 42 43 44 45 46 47 48 49 50
079
ASUS43 KDMX 210901
RWRIA

WEATHER ROUNDUP FOR IOWA
NATIONAL WEATHER SERVICE DES MOINES IA
300 AM CST TUE FEB 21 2017

NOTE: "FAIR" INDICATES FEW OR NO CLOUDS BELOW 12,000 FEET WITH NO
SIGNIFICANT WEATHER AND/OR OBSTRUCTIONS TO VISIBILITY.

* - THESE STATIONS ARE NOT NWS STATIONS...THUS NOT UNDER NWS
QUALITY CONTROL.  THEY ALSO DO NOT REPORT WEATHER SUCH
AS PRECIPITATION OR FOG.

IAZ001>003-012>014-020>022-031>034-043>046-211000-
   NORTHWEST IOWA

CITY           SKY/WX    TMP DP  RH WIND       PRES   REMARKS
CARROLL *      PTCLDY    36  36 100 W3        29.95R
CHEROKEE *     FOG       28  28 100 CALM      29.94F VSB 1/4
DENISON *      FOG       32  32 100 CALM      29.94S VSB 1/4
LE MARS *      CLEAR     32  32 100 CALM      29.93F FOG
SHELDON *      MIX PCPN  32  32 100 SE7       29.89F VSB 1/4 WCI  26
SIOUX CITY     PTCLDY    31  30  96 E6        29.93S FOG     WCI  25
SPENCER        CLEAR     34  33  96 S3        29.93R
STORM LAKE *   CLEAR     39  37  93 SW8       29.94S WCI  34
$$

IAZ055>058-069>071-079>083-090>094-211000-
   SOUTHWEST IOWA

CITY           SKY/WX    TMP DP  RH WIND       PRES   REMARKS
ATLANTIC *     CLEAR     34  34 100 CALM      29.96R FOG
CLARINDA *     FOG       36  36 100 CALM      29.98F VSB<1/4
COUNCIL BLFS * CLEAR     45  45 100 W3        29.97R
CRESTON *      CLOUDY    43  39  87 N8        29.96F
HARLAN  *      FOG       32  32 100 CALM      29.99S VSB 1/2
LAMONI         CLOUDY    47  43  86 N7        29.96R
RED OAK *      CLEAR     34  34 100 CALM      29.97S
SHENANDOAH *   CLEAR     36  34  93 CALM      29.97F
$$

IAZ047>049-059>061-072>074-084-211000-
   CENTRAL IOWA

CITY           SKY/WX    TMP DP  RH WIND       PRES   REMARKS
AMES           CLOUDY    38  38 100 W7        29.94S WCI  33
ANKENY *       CLOUDY    45  41  87 NW6       29.95F
BOONE *        CLEAR     39  39 100 W6        29.93R WCI  35
CHARITON *     CLOUDY    46  45  93 CALM      29.95S
DES MOINES     CLOUDY    46  42  86 N8        29.94F
GRINNELL*      CLOUDY    42  40  91 NW6       29.95S
KNOXVILLE *    CLOUDY    45  43  93 NW6       29.94R
MARSHALLTOWN   CLOUDY    38  36  92 NW5       29.93R FOG     WCI  34
NEWTON *       CLOUDY    43  41  93 CALM      29.94R
PELLA *        PTCLDY    45  43  94 NW3       29.95F
PERRY *          N/A     38  37  97 SW5       29.95R WCI  34
$$

IAZ004>006-015-016-023>025-035-036-211000-
   NORTH CENTRAL IOWA

CITY           SKY/WX    TMP DP  RH WIND       PRES   REMARKS
ALGONA *       CLEAR     36  36 100 NW8       29.92S WCI  29
CLARION *      CLEAR     36  36 100 W5        29.94R FOG     WCI  32
ESTHERVILLE    CLEAR     35  35 100 SW8       29.91R WCI  29
FORT DODGE *   CLEAR     34  30  86 CALM      29.94R
MASON CITY     CLEAR     35  34  96 W9        29.93R WCI  28
FOREST CITY *    N/A     34  34 100 NW3       29.92S FOG
IOWA FALLS *     N/A     36  35  96 W5        29.94R FOG     WCI  32
$$

IAZ007>011-017>019-026>030-037>042-050>054-066-211000-
   NORTHEAST IOWA

CITY           SKY/WX    TMP DP  RH WIND       PRES   REMARKS
CEDAR RAPIDS   MOCLDY    45  45 100 NW8       29.92R
CHARLES CITY * CLEAR     39  39 100 W5        29.92R
CLINTON *      CLOUDY    54  53  97 SW3       29.90S
DECORAH *      CLEAR     41  39  93 W6        29.89S
DUBUQUE        CLOUDY    47  46  97 NW8       29.91R
MONTICELLO *   CLOUDY    48  45  87 NW9       29.91S
OELWEIN *      CLOUDY    41  41 100 CALM      29.92S
WATERLOO       CLEAR     42  40  92 W5        29.92S
$$

IAZ064-065-067-068-078-211000-
   EAST CENTRAL IOWA

CITY           SKY/WX    TMP DP  RH WIND       PRES   REMARKS
DAVENPORT      CLOUDY    56  55  97 SW8       29.90S
IOWA CITY      MOCLDY    51  45  79 NW12      29.94R
MUSCATINE *    CLOUDY    55  54  94 W8        29.91R
QUAD CITIES    CLOUDY    59  55  87 VRB3      29.90S
$$

IAZ062-063-075>077-085>089-095>099-211000-
   SOUTHEAST IOWA

CITY           SKY/WX    TMP DP  RH WIND       PRES   REMARKS
BURLINGTON     CLOUDY    57  57 100 SW5       29.91R FOG
FAIRFIELD *    CLOUDY    50  46  87 NW9       29.94R
KEOKUK *       CLOUDY    57  57 100 SW5       29.91R FOG
OTTUMWA        CLOUDY    49  46  90 NW9       29.95R
WASHINGTON *   CLOUDY    52  48  87 N15       29.94R
$$

ABBREVIATIONS USED IN REMARKS
   TC - TEMPERATURES IN CELSIUS
  WCI - WIND CHILL INDEX
   HX - HEAT INDEX
  VSB - VISIBILITY
$$





USA.gov is the U.S. government's official web portal to all federal, state and local government web resources and services.